Flag for Falkland Islands Weather past 2 weeks in Stanley, Falkland Islands

Now
39 °F

Scattered showers. Scattered clouds.


Feels Like: 32 °F
Forecast: 40 / 49 °F
Wind: 13 mph from Southwest

Location: Mount Pleasant Airport

Current Time: Dec 21, 2014 at 9:57:08 PM

Latest Report: Dec 21, 2014 at 8:50 PM


Visibility: N/A

Pressure: 29.65 "Hg

Humidity: 81%

Dew point: 34 °F

Location of StanleyLocation

Historic Weather in Stanley — Graph

°F

Stanley temperature yesterday

Maximum temperature yesterday: 48 °F (at 11:50 AM)
Minimum temperature yesterday: 36 °F (at 12:50 AM)
Average temperature yesterday: 42 °F

Past Weeks' High & Low Weather Summary

 TemperatureHumidityPressure
High66 °F (Dec 7, 10:50 AM)100% (Dec 9, 9:50 PM)29.80 "Hg (Dec 9, 9:50 PM)
Low36 °F (Dec 13, 4:50 AM)26% (Dec 7, 1:50 PM)28.65 "Hg (Dec 18, 6:50 PM)
Average48 °F71%29.39 "Hg
* Reported Dec 6 7:50 PM — Dec 21 7:50 PM, Stanley, Weather by CustomWeather, © 2014

Note: Actual official high and low records may vary slightly from our data, if they occured in-between our weather recording intervals... More about our weather records

Advertising

Stanley weather history for previous 24 hours

 ConditionsComfort  
Time TempWeatherWind HumidityBarometerVisibility
7:50 PM
Dec 21
41 °FScattered clouds.20 mph81%29.65 "HgN/A
6:50 PM43 °FSprinkles. Scattered clouds.22 mph71%29.62 "HgN/A
5:50 PM45 °FBroken clouds.24 mph61%29.62 "HgN/A
4:50 PM45 °FScattered clouds.22 mph71%29.62 "HgN/A
3:50 PM43 °FPartly sunny.28 mph76%29.62 "HgN/A
2:50 PM45 °FPartly sunny.29 mph76%29.59 "HgN/A
1:50 PM46 °FPartly sunny.18 mph76%29.56 "HgN/A
12:50 PM46 °FScattered clouds.18 mph76%29.56 "HgN/A
11:50 AM46 °FBroken clouds.18 mph82%29.53 "HgN/A
10:50 AM43 °FBroken clouds.14 mph87%29.53 "HgN/A
9:50 AM45 °FScattered clouds.16 mph87%29.53 "HgN/A
8:50 AM48 °FScattered clouds.10 mph71%29.53 "HgN/A
7:50 AM43 °FScattered clouds.9 mph87%29.53 "HgN/A
6:50 AM45 °FBroken clouds.10 mph87%29.53 "HgN/A
5:50 AM41 °FBroken clouds.6 mph87%29.53 "HgN/A
4:50 AM41 °FBroken clouds.7 mph87%29.53 "HgN/A
3:50 AM41 °FPassing clouds.9 mph93%29.53 "HgN/A
2:50 AM41 °FPassing clouds.8 mph93%29.53 "HgN/A
1:50 AM41 °FPassing clouds.8 mph93%29.53 "HgN/A
12:50 AM41 °FClear.7 mph87%29.53 "Hg10 mi
11:50 PM
Dec 20
39 °FPassing clouds.6 mph93%29.53 "HgN/A
10:50 PM41 °FPartly cloudy.8 mph93%29.53 "HgN/A
9:50 PM41 °FRain showers. Partly cloudy.9 mph93%29.50 "Hg3 mi
Weather by CustomWeather, © 2014

See weather overviewHow to use our weather pages